Regional Weather Roundup
Issued by NWS

Home | Current Version | Previous Version | Graphics & Text | Print | Product List | Glossary On
Versions: 1 2 3 4 5 6 7 8 9 10 11 12 13 14 15 16 17 18 19 20 21 22 23 24 25 26 27 28 29 30 31 32 33 34 35 36 37 38 39 40 41 42 43 44 45 46 47 48 49 50
000
ASUS43 KLOT 291503
RWRIL

ILLINOIS REGIONAL WEATHER ROUNDUP
NATIONAL WEATHER SERVICE CHICAGO/ROMEOVILLE IL
1000 AM CDT WED MAR 29 2017

NOTE: "FAIR" INDICATES FEW OR NO CLOUDS BELOW 12,000 FEET WITH NO
SIGNIFICANT WEATHER AND/OR OBSTRUCTIONS TO VISIBILITY.

* THESE STATIONS ARE NOT UNDER NWS QUALITY CONTROL. THEY ALSO MAY NOT
  REPORT WEATHER SUCH AS PRECIPITATION OR FOG.

ILZ001-002-007-009-015-016-024-291600-
NORTHWEST ILLINOIS

CITY           SKY/WX    TMP DP  RH WIND       PRES   REMARKS
MOLINE         CLOUDY    43  39  86 E15       30.18F FOG
STERLING*      CLOUDY    43  40  89 E16       30.21R
SAVANNA*       CLOUDY    43  38  83 E12       30.21F
$$

ILZ003-004-008-010-011-017-018-291600-
NORTH CENTRAL ILLINOIS

CITY           SKY/WX    TMP DP  RH WIND       PRES   REMARKS
ROCKFORD       CLOUDY    42  35  76 E8        30.25S
FREEPORT*      CLOUDY    38  37  94 E8        30.25F WCI  32
ROCHELLE*      CLOUDY    42  37  82 E10       30.22F
DE KALB*       CLOUDY    43  36  76 E10       30.23F
$$

ILZ005-006-012>014-019>023-291600-
NORTHEAST ILLINOIS

CITY           SKY/WX    TMP DP  RH WIND       PRES   REMARKS
CHICAGO-OHARE  CLOUDY    44  35  70 NE12      30.24R
CHICAGO-MIDWAY CLOUDY    45  36  70 NE8       30.25R
AURORA         PTSUNNY   45  36  70 E10       30.22S
LANSING*       PTSUNNY   45  40  82 E5        30.24R
JOLIET*        CLOUDY    47  38  73 E9        30.22S
WAUKEGAN       CLOUDY    37  37 100 NE8       30.28R WCI  31
DUPAGE AIRPORT MOSUNNY   44  36  73 E10       30.23R
WHEELING       MOSUNNY   39  37  92 NE9       30.27R WCI  33
MORRIS*        CLOUDY    46  39  76 E10       30.20F
NORTHERLY ISL    N/A     40  39  97 N8          N/A
$$

LMZ740>746-291600-
SOUTHERN LAKE MICHIGAN

STATION/POSITION SKY/WX   TEMP    WIND        PRES    VSBY  WAVE
                          AIR SEA DIR/SP/G                  HT/PER
                          (F)     (DEG/KT/KT) (MB)    (MI)  (FT/S)
HARRISON CRIB              38      40/  6/  7   N/A
BURNHAM HARBOR             40      20/  4/ 10   N/A
CALUMET HARBOR             39      50/  3/  6 1023.7R
BURNS HARBOR               42     100/  8/ 13 1024.4
MICHIGAN CITY              45     120/  9/ 12   N/A
$$

ILZ025>027-034>036-040-047-049-050-058-095>099-291600-
WEST-CENTRAL ILLINOIS

CITY           SKY/WX    TMP DP  RH WIND       PRES   REMARKS
QUINCY         RAIN      44  43  96 NE10      30.12R FOG
GALESBURG*     DRIZZLE   44  42  93 E12G17    30.14F
MACOMB*        CLOUDY    45  44  99 E7        30.18S FOG
JACKSONVILLE*  CLOUDY    48  45  88 NE8       30.13R
PITTSFIELD*    LGT RAIN  46  45  97 NE9G16    30.09F
$$

ILZ028>032-037-038-041>044-048-051>054-059>061-291600-
CENTRAL ILLINOIS

CITY           SKY/WX    TMP DP  RH WIND       PRES   REMARKS
PONTIAC        MOSUNNY   49  45  86 E20G26    30.18F
BLOOMINGTON    CLOUDY    48  43  82 E20G31    30.16R
DECATUR        CLOUDY    52  44  74 E23G29    30.10F
PEORIA         CLOUDY    47  44  90 E13       30.15S
SPRINGFIELD    CLOUDY    53  46  77 E14       30.12R
TAYLORVILLE    NOT AVBL
$$

ILZ033-039-045-046-055>057-062-063-291600-
EAST-CENTRAL ILLINOIS

CITY           SKY/WX    TMP DP  RH WIND       PRES   REMARKS
CHAMPAIGN      CLOUDY    50  43  77 E21       30.13F
RANTOUL*       CLOUDY    52  44  75 E21G28    30.14F
MATTOON        CLOUDY    53  47  79 E16G23    30.10S
PARIS*         CLOUDY    49  46  88 NE14      30.16R
$$

ILZ079-100>102-291600-
SOUTHWEST ILLINOIS

CITY           SKY/WX    TMP DP  RH WIND       PRES   REMARKS
ALTON          LGT RAIN  50  45  81 E14       30.06S
BELLEVILLE     CLOUDY    54  52  92 E14       30.04F
CAHOKIA*       CLOUDY    53  47  79 E8        30.03F
SPARTA*        CLOUDY    53  49  86 E13       30.06R
$$

ILZ064>066-069>071-074>076-080>082-084>086-088>090-092>094-291600-
SOUTH-CENTRAL ILLINOIS

CITY           SKY/WX    TMP DP  RH WIND       PRES   REMARKS
CARBONDALE     CLOUDY    57  53  86 E15       30.03R
CAIRO*         LGT RAIN  56  55  93 NE5       30.04S
EFFINGHAM*     CLOUDY    55  49  81 E13G22    30.11R
MT. VERNON     PTSUNNY   57  50  77 E6        30.10R
CENTRALIA*     CLOUDY    57  51  80 E6        30.09R
SALEM*         CLOUDY    56  48  74 E8G17     30.09R
$$

ILZ067-068-072-073-078-083-087-091-291600-
SOUTHEAST ILLINOIS

CITY           SKY/WX    TMP DP  RH WIND       PRES   REMARKS
LAWRENCEVILLE  PTSUNNY   56  50  80 E16       30.10S
FLORA*         PTSUNNY   58  50  74 E14G22    30.09R
FAIRFIELD*     PTSUNNY   58  51  78 E10G16    30.08R
HARRISBURG*    CLOUDY    58  53  84 E15       30.09R HAZE
ROBINSON*      CLOUDY    54  47  78 E16       30.12F
CARMI*         CLOUDY    59  52  79 E13G18    30.07R
$$

ABBREVIATIONS USED IN REMARKS
   TC - TEMPERATURE IN CELSIUS
  WCI - WIND CHILL INDEX
   HX - HEAT INDEX
  VSB - VISIBILITY
$$





USA.gov is the U.S. government's official web portal to all federal, state and local government web resources and services.